User: anonymous   Login
Location: Copeville
(33.0796°N, 96.4155°W)
Time: 02:31:20
(UTC+00:00)
Language:

SPROUT - Orbit

View from above orbital plane
View from above orbital plane
View from above satellite
View from above satellite

Ground track
Ground track

The orbit data is extracted from the following two-line orbital elements,

1 39770U 14029E   24107.35736719  .00147255  00000-0  49944-2 0  9993
2 39770  98.0090 254.2704 0003683 302.0504  58.0376 15.29901418538142
Epoch (UTC): 16 April 2024 08:34:36
Eccentricity: 0.0003683
inclination: 98.0090°
perigee height: 473 km
apogee height: 478 km
right ascension of ascending node: 254.2704°
argument of perigee: 302.0504°
revolutions per day: 15.29901418
mean anomaly at epoch: 58.0376°
orbit number at epoch: 53814

The dashed part of the orbit path shows where the satellite is in the earth's shadow,  

DLR